HS5YVN Weather Reports


Display with metric or nautical units.
time (UTC)temp
F
wind
direction
speed
MPH
gust
MPH
rain 1hr
in
rain 24hr
in
rain mn
in
humidity
%
barometer
mb
20260504222619 88 0 0.0 0.0 0.00 0.00 0.00 100 1000.0
20260504222055 88 0 0.0 0.0 0.00 0.00 0.00 100 1000.0
20260504221531 87 0 0.0 0.0 0.00 0.00 0.00 100 1000.0
20260504221007 87 0 0.0 0.0 0.00 0.00 0.00 100 1000.0
20260504220444 88 0 0.0 0.0 0.00 0.00 0.00 100 1000.0
20260504215920 88 0 0.0 0.0 0.00 0.00 0.00 100 1000.0
20260504215356 88 0 0.0 0.0 0.00 0.00 0.00 100 1000.0
20260504214832 89 0 0.0 0.0 0.00 0.00 0.00 100 1000.0
20260504214308 89 0 0.0 0.0 0.00 0.00 0.00 100 1000.0
20260504213745 90 0 0.0 0.0 0.00 0.00 0.00 100 1000.0
20260504213221 89 0 0.0 0.0 0.00 0.00 0.00 100 1000.0
20260504212657 90 0 0.0 0.0 0.00 0.00 0.00 100 1000.0
20260504212133 89 0 0.0 0.0 0.00 0.00 0.00 100 1000.0
20260504211609 90 0 0.0 0.0 0.00 0.00 0.00 100 1000.0
20260504211046 89 0 0.0 0.0 0.00 0.00 0.00 100 999.0
20260504210522 89 0 0.0 0.0 0.00 0.00 0.00 100 1000.0
20260504205958 89 0 0.0 0.0 0.00 0.00 0.00 100 1000.0
20260504205434 90 0 0.0 0.0 0.00 0.00 0.00 100 1000.0
20260504204910 90 0 0.0 0.0 0.00 0.00 0.00 100 1000.0
20260504204347 90 0 0.0 0.0 0.00 0.00 0.00 100 1000.0
20260504203823 89 0 0.0 0.0 0.00 0.00 0.00 100 999.0
20260504203259 90 0 0.0 0.0 0.00 0.00 0.00 100 999.0
20260504202735 90 0 0.0 0.0 0.00 0.00 0.00 100 1000.0
20260504202211 91 0 0.0 0.0 0.00 0.00 0.00 100 1000.0
20260504201647 91 0 0.0 0.0 0.00 0.00 0.00 100 1000.0
20260504201123 92 0 0.0 0.0 0.00 0.00 0.00 100 1000.0
20260504200559 94 0 0.0 0.0 0.00 0.00 0.00 100 1000.0
20260504200036 93 0 0.0 0.0 0.00 0.00 0.00 100 1000.0
20260504195512 93 0 0.0 0.0 0.00 0.00 0.00 100 1000.0
20260504194948 93 0 0.0 0.0 0.00 0.00 0.00 100 999.0
20260504194424 93 0 0.0 0.0 0.00 0.00 0.00 100 1000.0
20260504193900 93 0 0.0 0.0 0.00 0.00 0.00 100 999.0
20260504193336 94 0 0.0 0.0 0.00 0.00 0.00 100 999.0
20260504192813 94 0 0.0 0.0 0.00 0.00 0.00 100 999.0
20260504192249 94 0 0.0 0.0 0.00 0.00 0.00 100 1000.0
20260504191725 94 0 0.0 0.0 0.00 0.00 0.00 100 1000.0
20260504191201 93 0 0.0 0.0 0.00 0.00 0.00 100 1000.0
20260504190638 93 0 0.0 0.0 0.00 0.00 0.00 100 1000.0
20260504190114 95 0 0.0 0.0 0.00 0.00 0.00 100 1000.0
20260504185550 95 0 0.0 0.0 0.00 0.00 0.00 100 1000.0
20260504185026 95 0 0.0 0.0 0.00 0.00 0.00 100 1000.0
20260504184503 95 0 0.0 0.0 0.00 0.00 0.00 100 1000.0
20260504183939 96 0 0.0 0.0 0.00 0.00 0.00 100 1000.0
20260504183415 96 0 0.0 0.0 0.00 0.00 0.00 100 1000.0
20260504182851 95 0 0.0 0.0 0.00 0.00 0.00 100 1000.0
20260504182327 95 0 0.0 0.0 0.00 0.00 0.00 100 1000.0
20260504181803 95 0 0.0 0.0 0.00 0.00 0.00 100 1000.0
20260504181239 95 0 0.0 0.0 0.00 0.00 0.00 100 1000.0
20260504180716 95 0 0.0 0.0 0.00 0.00 0.00 100 1000.0
20260504180152 93 0 0.0 0.0 0.00 0.00 0.00 100 1000.0
20260504175628 94 0 0.0 0.0 0.00 0.00 0.00 100 1000.0
20260504175104 94 0 0.0 0.0 0.00 0.00 0.00 100 1000.0
20260504174540 96 0 0.0 0.0 0.00 0.00 0.00 100 1000.0
20260504174016 94 0 0.0 0.0 0.00 0.00 0.00 100 1000.0
20260504173453 94 0 0.0 0.0 0.00 0.00 0.00 100 1000.0
20260504172929 94 0 0.0 0.0 0.00 0.00 0.00 100 1000.0
20260504172404 94 0 0.0 0.0 0.00 0.00 0.00 100 1000.0
20260504172303 94 0 0.0 0.0 0.00 0.00 0.00 100 1000.0
20260504171737 94 0 0.0 0.0 0.00 0.00 0.00 100 1000.0
20260504171214 94 0 0.0 0.0 0.00 0.00 0.00 100 1000.0
20260504170650 93 0 0.0 0.0 0.00 0.00 0.00 100 1000.0
20260504170126 94 0 0.0 0.0 0.00 0.00 0.00 100 1000.0
20260504160204 98 0 0.0 0.0 0.00 0.00 0.00 100 1001.0
20260504150806 98 0 0.0 0.0 0.00 0.00 0.00 100 1000.0
20260504150242 99 0 0.0 0.0 0.00 0.00 0.00 100 1000.0
20260504140845 99 0 0.0 0.0 0.00 0.00 0.00 100 999.0
20260504140321 101 0 0.0 0.0 0.00 0.00 0.00 100 999.0
20260504130358 105 0 0.0 0.0 0.00 0.00 0.00 100 997.0
20260504110515 112 0 0.0 0.0 0.00 0.00 0.00 100 994.0
20260504100553 121 0 0.0 0.0 0.00 0.00 0.00 100 993.0
20260504090107 122 0 0.0 0.0 0.00 0.00 0.00 100 994.0
20260504081757 110 0 0.0 0.0 0.00 0.00 0.00 100 995.0
20260504081233 111 0 0.0 0.0 0.00 0.00 0.00 100 995.0
20260504080709 111 0 0.0 0.0 0.00 0.00 0.00 100 995.0
20260504080145 111 0 0.0 0.0 0.00 0.00 0.00 100 995.0
20260504070223 108 0 0.0 0.0 0.00 0.00 0.00 100 996.0
20260504050236 104 0 0.0 0.0 0.00 0.00 0.00 100 999.0
20260504045713 104 0 0.0 0.0 0.00 0.00 0.00 100 999.0
20260504045149 104 0 0.0 0.0 0.00 0.00 0.00 100 999.0
20260504044625 104 0 0.0 0.0 0.00 0.00 0.00 100 999.0
20260504044102 104 0 0.0 0.0 0.00 0.00 0.00 100 999.0
20260504043537 104 0 0.0 0.0 0.00 0.00 0.00 100 999.0
20260504043013 103 0 0.0 0.0 0.00 0.00 0.00 100 999.0
20260504042450 103 0 0.0 0.0 0.00 0.00 0.00 100 999.0
20260504041926 103 0 0.0 0.0 0.00 0.00 0.00 100 1000.0
20260504041402 103 0 0.0 0.0 0.00 0.00 0.00 100 1000.0
20260504040838 103 0 0.0 0.0 0.00 0.00 0.00 100 1000.0
20260504040314 102 0 0.0 0.0 0.00 0.00 0.00 100 1000.0
20260504035750 102 0 0.0 0.0 0.00 0.00 0.00 100 1000.0
20260504035227 102 0 0.0 0.0 0.00 0.00 0.00 100 1000.0
20260504034703 102 0 0.0 0.0 0.00 0.00 0.00 100 1000.0
20260504034139 102 0 0.0 0.0 0.00 0.00 0.00 100 1000.0
20260504033615 102 0 0.0 0.0 0.00 0.00 0.00 100 1000.0
20260504033052 102 0 0.0 0.0 0.00 0.00 0.00 100 1000.0
20260504032528 101 0 0.0 0.0 0.00 0.00 0.00 100 1000.0
20260504032004 101 0 0.0 0.0 0.00 0.00 0.00 100 1000.0
20260504031440 102 0 0.0 0.0 0.00 0.00 0.00 100 1000.0
20260504030917 101 0 0.0 0.0 0.00 0.00 0.00 100 1000.0
20260504030353 101 0 0.0 0.0 0.00 0.00 0.00 100 1000.0
20260504025829 102 0 0.0 0.0 0.00 0.00 0.00 100 1000.0
20260504025305 101 0 0.0 0.0 0.00 0.00 0.00 100 1000.0
20260504024741 101 0 0.0 0.0 0.00 0.00 0.00 100 1000.0
20260504024217 101 0 0.0 0.0 0.00 0.00 0.00 100 1000.0
20260504023654 101 0 0.0 0.0 0.00 0.00 0.00 100 1000.0
20260504023130 101 0 0.0 0.0 0.00 0.00 0.00 100 1000.0
20260504022606 101 0 0.0 0.0 0.00 0.00 0.00 100 1000.0
20260504022042 101 0 0.0 0.0 0.00 0.00 0.00 100 1000.0
20260504021518 100 0 0.0 0.0 0.00 0.00 0.00 100 1000.0
20260504020954 100 0 0.0 0.0 0.00 0.00 0.00 100 1000.0
20260504020431 100 0 0.0 0.0 0.00 0.00 0.00 100 1000.0
20260504015907 100 0 0.0 0.0 0.00 0.00 0.00 100 1000.0
20260504015343 99 0 0.0 0.0 0.00 0.00 0.00 100 1000.0
20260504014819 100 0 0.0 0.0 0.00 0.00 0.00 100 1000.0
20260504014255 100 0 0.0 0.0 0.00 0.00 0.00 100 1000.0
20260504013731 99 0 0.0 0.0 0.00 0.00 0.00 100 1000.0
20260504013208 100 0 0.0 0.0 0.00 0.00 0.00 100 1000.0
20260504012644 100 0 0.0 0.0 0.00 0.00 0.00 100 1000.0
20260504012120 100 0 0.0 0.0 0.00 0.00 0.00 100 1000.0
20260504011556 99 0 0.0 0.0 0.00 0.00 0.00 100 1000.0
20260504011032 99 0 0.0 0.0 0.00 0.00 0.00 100 1000.0
20260504010509 99 0 0.0 0.0 0.00 0.00 0.00 100 999.0
20260504005945 99 0 0.0 0.0 0.00 0.00 0.00 100 999.0
20260504005421 99 0 0.0 0.0 0.00 0.00 0.00 100 999.0
20260504004858 98 0 0.0 0.0 0.00 0.00 0.00 100 999.0
20260504004334 98 0 0.0 0.0 0.00 0.00 0.00 100 999.0
20260504003810 98 0 0.0 0.0 0.00 0.00 0.00 100 999.0
20260504003246 98 0 0.0 0.0 0.00 0.00 0.00 100 999.0
20260504002722 98 0 0.0 0.0 0.00 0.00 0.00 100 999.0
20260504002158 98 0 0.0 0.0 0.00 0.00 0.00 100 999.0
20260504001634 98 0 0.0 0.0 0.00 0.00 0.00 100 999.0
20260504001111 98 0 0.0 0.0 0.00 0.00 0.00 100 999.0
20260504000547 98 0 0.0 0.0 0.00 0.00 0.00 100 999.0
20260504000023 97 0 0.0 0.0 0.00 0.00 0.00 100 999.0
20260503235459 98 0 0.0 0.0 0.00 0.00 0.00 100 999.0
20260503234935 97 0 0.0 0.0 0.00 0.00 0.00 100 999.0
20260503234411 96 0 0.0 0.0 0.00 0.00 0.00 100 999.0
20260503233848 97 0 0.0 0.0 0.00 0.00 0.00 100 999.0
20260503233324 97 0 0.0 0.0 0.00 0.00 0.00 100 999.0
20260503232800 97 0 0.0 0.0 0.00 0.00 0.00 100 999.0
20260503232236 97 0 0.0 0.0 0.00 0.00 0.00 100 998.0
20260503231712 97 0 0.0 0.0 0.00 0.00 0.00 100 998.0
20260503231149 98 0 0.0 0.0 0.00 0.00 0.00 100 998.0
20260503230625 97 0 0.0 0.0 0.00 0.00 0.00 100 998.0
20260503225537 97 0 0.0 0.0 0.00 0.00 0.00 100 998.0
20260503225014 96 0 0.0 0.0 0.00 0.00 0.00 100 998.0
20260503224450 96 0 0.0 0.0 0.00 0.00 0.00 100 998.0
20260503223926 95 0 0.0 0.0 0.00 0.00 0.00 100 998.0
20260503223402 96 0 0.0 0.0 0.00 0.00 0.00 100 998.0